Location: Oberwangen
(47.4286°N, 8.9679°E)
Time: 21:30:58
(UTC+00:00)

ARIANE 5 R/B - Pass Details

Date: 20 June 2021
Orbit: 620 x 656 km, 98.1° (Epoch: 16 July)

Event Time Altitude Azimuth Distance (km) Brightness Sun altitude
Exits shadow 20:01:01 - 137° (SE) 2,309 4.8 -5.5°
Reaches altitude 10° 20:01:44 10° 134° (SE) 2,038 4.5 -5.6°
Maximum altitude 20:05:48 36° 68° (ENE) 1,025 3.5 -6.1°
Drops below altitude 10° 20:09:56 10° 2° (N) 2,070 6.0 -6.6°
Sets 20:12:17 0° 354° (N) 2,990 7.0 -6.8°
